sat.trackr.live / text

‹ back to catalog

STARLINK-3549

NORAD 51891 · 2022-022AR

PAYLOAD ACTIVE UNKNOWN

§ Identity

Operator
Country
US
Launch date
2022-03-03
Launch site
AFETR
Launch vehicle
Mass (kg)
RCS (m²)

Purposes: comms

External: N2YO · Heavens-Above · Gunter

§ Orbital elements

Epoch: 2026-05-25T01:15:51.706656Z

Period
95.44 min
Inclination
53.2134°
Eccentricity
0.0001503
Mean motion
15.08851900 rev/d
Perigee alt
538.7 km
Apogee alt
540.7 km
Semi-major
6,917.8 km
B*
-9.6985e-5
RAAN
16.3134°
Arg perigee
81.5941°
Mean anomaly
278.5222°
Rev number
23,482

§ Raw data

STARLINK-35491 51891U 22022AR  26145.05268179 -.00001832  00000+0 -96985-4 0  99942 51891  53.2134  16.3134 0001503  81.5941 278.5222 15.08851900234823

JSON: /api/v1/satellites/51891 · /tle

For live sub-satellite position, see the globe view (requires WebGL).

§ Visibility from observer

Set your observer location to see the next 7 days of passes ≥ 10°. The values pass through the URL so the page stays shareable.

No JS? Fill the form by hand. The geolocation button needs JavaScript.